Wind_Speed
8 8 8 8 8 9 9 10 11 11 12 12 13 14 15 17 18 19 18 18 17 16 17 17 16 15 14 13 13 13 14 15 16 16 15 16 18 18 18 17 16 14 12 10 9 6 4 2 2 3 3 3 4 5 7 5 4 9 11 10 7 2 12 18 18 17 19 23 24 22 21 20 21 20 20 21 19 19 17 16 17 20 20 19 19 19 19 18
9 9 9 9 9 9 9 10 11 12 12 13 13 13 14 15 16 18 19 19 18 17 17 17 17 16 15 14 13 13 14 15 16 16 15 15 15 17 18 18 16 15 14 12 10 8 5 1 4 5 3 4 7 5 6 4 6 10 10 9 5 4 13 19 17 18 19 22 24 22 20 19 19 20 20 20 20 20 19 19 22 24 22 17 17 19 18 17
10 10 9 9 9 9 9 10 10 11 12 13 13 13 13 14 15 15 17 18 19 19 18 18 17 17 16 15 14 13 13 14 16 17 16 15 14 15 16 17 17 16 15 13 12 9 6 3 2 6 4 7 8 4 7 8 9 10 8 7 4 6 15 18 18 19 19 21 22 21 20 18 18 19 19 20 21 20 20 23 25 24 20 16 18 20 18 16
10 10 10 9 9 9 9 9 10 10 11 12 13 13 13 14 14 14 15 16 17 18 19 19 17 17 17 16 14 13 13 12 16 19 14 14 13 13 15 16 17 17 16 15 13 11 8 5 4 6 7 8 9 6 10 12 10 9 6 5 2 10 17 18 18 20 20 20 21 21 21 19 18 17 18 21 21 20 20 22 22 20 18 18 20 20 18 16
11 11 10 10 10 9 8 8 9 10 10 10 11 12 13 13 13 13 13 13 15 16 18 19 18 18 16 17 14 14 11 7 17 20 13 14 14 13 14 15 17 17 17 16 14 12 9 6 4 6 8 9 10 6 9 11 8 8 6 3 4 14 19 19 19 21 21 21 21 20 21 19 18 17 18 20 20 20 20 19 20 17 16 18 20 20 18 16
11 11 10 10 10 9 9 8 8 8 9 9 9 10 11 12 13 13 12 12 13 13 15 17 19 18 16 17 14 14 11 8 18 19 13 15 14 13 14 15 17 17 17 16 14 12 10 7 4 6 8 7 10 7 9 10 6 7 6 3 7 16 19 21 21 22 22 21 20 19 19 19 18 19 19 18 19 20 20 20 20 18 16 18 19 19 19 17
12 11 10 10 9 9 9 8 8 7 8 8 8 8 9 10 11 11 11 11 12 12 12 14 16 17 17 17 14 15 13 12 21 18 13 15 14 14 14 14 16 17 17 16 14 12 9 6 4 6 7 7 10 7 8 9 8 8 5 3 8 17 21 24 22 21 21 20 20 19 18 18 18 20 18 17 18 20 21 21 20 19 17 17 18 20 20 18
12 12 11 10 10 9 8 8 8 7 7 7 8 8 8 9 10 10 10 10 11 11 11 11 13 15 17 17 15 13 9 15 23 17 12 15 15 15 14 13 14 15 16 15 15 14 10 6 5 6 8 8 7 3 6 8 11 11 4 1 11 17 18 22 22 21 21 19 19 19 19 17 17 18 17 17 19 21 22 21 20 20 19 18 19 21 21 19
13 12 11 11 10 10 9 8 8 8 8 7 7 8 8 9 9 10 10 10 10 10 10 10 10 12 15 16 15 11 8 17 25 18 11 13 14 15 14 12 13 14 15 16 16 15 11 6 5 6 9 10 5 3 6 7 11 9 2 6 14 16 17 22 21 21 21 19 20 20 20 19 17 16 17 18 20 22 22 22 22 21 20 20 21 21 21 20
13 12 11 11 10 10 9 8 8 8 8 8 8 8 8 8 9 10 10 10 10 10 10 9 9 10 12 15 15 10 10 19 24 18 13 12 13 15 15 13 13 14 14 16 16 16 13 7 3 6 9 9 3 3 4 6 9 5 4 8 13 14 18 23 19 19 19 19 22 21 19 19 17 16 19 21 21 22 23 23 22 22 21 21 21 21 21 20
13 12 12 11 10 10 9 8 8 8 8 8 8 8 8 8 9 10 10 10 10 10 10 9 9 9 10 14 16 11 12 18 21 19 15 13 13 14 15 14 13 13 14 16 16 16 14 9 5 7 8 6 3 3 3 7 9 1 6 9 12 13 16 20 17 19 20 18 21 21 18 16 15 16 21 23 21 22 23 24 23 21 21 21 20 20 20 20
13 12 12 11 10 9 9 8 8 8 8 8 9 9 9 9 9 10 10 10 10 11 10 10 9 8 9 11 14 13 15 19 20 17 14 14 14 13 14 15 13 13 14 13 12 15 16 10 8 7 9 5 3 2 2 4 5 2 4 8 13 12 12 16 16 18 20 19 19 18 16 14 12 16 22 24 22 23 24 23 23 21 21 21 19 19 20 20
12 12 12 11 10 9 9 8 8 8 8 9 9 9 10 10 10 10 10 10 10 10 10 10 8 7 8 7 11 18 21 21 19 16 14 14 14 13 15 15 14 14 16 13 7 14 15 9 11 9 9 6 2 2 3 6 5 1 4 6 10 10 9 12 15 17 18 17 18 17 15 12 11 16 23 24 23 24 24 22 23 22 21 21 19 19 19 19
12 12 11 11 10 9 9 9 9 9 9 9 9 10 10 10 10 10 10 9 9 9 9 10 7 7 9 9 13 19 20 21 18 15 13 13 14 13 14 15 15 15 15 16 9 11 13 14 18 14 10 11 7 4 6 8 8 3 4 3 6 7 7 9 12 15 16 16 18 17 15 14 13 16 21 24 24 24 23 22 22 21 21 20 19 19 18 17
12 11 11 10 9 10 10 10 10 10 10 10 10 10 10 10 10 10 10 8 7 7 8 7 6 5 4 6 12 14 15 18 17 15 12 12 13 12 14 15 17 16 14 17 13 10 17 20 21 15 7 9 10 6 6 10 9 5 4 4 5 7 8 10 10 13 15 16 17 15 15 16 14 16 21 24 25 24 23 21 21 21 21 20 18 19 17 16
11 10 10 10 10 10 10 10 11 11 11 10 11 10 10 10 9 9 9 7 6 6 5 4 4 4 4 1 8 8 9 12 13 14 11 10 10 10 14 15 15 15 15 17 17 15 22 23 20 15 8 8 10 9 8 12 12 8 4 3 6 8 9 10 11 13 14 16 18 14 13 15 15 18 20 23 25 25 23 21 21 21 20 19 18 19 17 16
10 10 10 10 10 10 11 11 11 11 11 11 11 10 10 9 9 9 7 6 4 4 4 1 1 4 3 3 6 5 2 7 10 12 9 8 7 7 13 15 15 15 14 16 18 17 19 21 19 15 11 11 11 10 12 12 11 9 5 3 4 7 8 10 13 16 17 18 19 15 13 15 16 19 21 21 25 25 22 21 21 21 20 19 18 19 18 17
10 9 9 10 10 10 11 12 12 12 12 12 10 9 9 9 11 10 6 4 3 10 10 3 6 2 2 3 3 2 3 8 9 9 9 8 9 10 12 13 13 14 12 12 13 12 13 15 16 13 12 12 11 12 13 9 5 6 6 4 3 5 7 9 12 15 18 20 21 17 14 15 16 20 21 20 24 25 22 22 21 21 21 20 19 19 18 18
9 9 9 9 10 11 12 13 13 13 11 10 8 8 9 11 14 13 8 2 6 8 10 2 7 5 2 2 2 5 8 10 9 8 8 9 10 11 11 10 11 11 9 9 9 9 11 13 14 15 15 15 13 13 13 8 2 1 3 3 3 4 7 9 9 10 17 21 21 19 15 16 19 21 21 20 24 24 22 22 22 21 21 20 19 19 18 18
9 9 9 10 11 12 13 13 12 12 11 9 6 6 11 14 13 12 9 4 3 4 2 2 2 3 3 2 4 8 8 8 7 7 7 8 8 8 10 10 10 10 10 9 9 8 11 14 16 18 16 15 14 13 15 11 5 3 2 1 1 3 6 7 6 7 14 20 21 20 17 17 20 21 21 20 22 24 24 24 23 22 22 20 19 19 18 18
9 9 10 11 12 12 13 13 13 13 11 9 5 8 13 11 6 5 6 7 7 5 4 6 7 8 4 3 4 6 6 4 7 7 8 9 8 8 11 11 10 12 12 11 9 8 12 16 17 18 16 15 13 12 16 14 6 4 5 1 2 3 4 4 5 6 12 18 20 20 18 20 23 22 22 22 21 23 24 25 24 22 22 21 20 19 18 19
9 10 11 12 13 12 13 13 14 14 14 12 6 9 14 10 5 2 2 3 4 6 6 5 7 9 9 6 4 5 5 5 7 8 8 9 10 10 10 10 12 12 12 13 12 10 14 17 17 16 15 15 13 11 15 15 10 7 6 3 2 3 2 3 4 5 10 14 16 18 17 20 24 24 24 24 22 22 22 24 25 23 22 22 22 21 20 20
9 11 11 13 12 12 13 13 15 15 15 16 10 9 11 8 4 7 7 6 2 6 4 2 2 5 7 4 6 6 8 6 7 9 10 10 11 11 9 9 12 12 12 15 14 13 14 15 16 16 15 15 14 12 14 14 11 12 10 7 7 6 3 4 5 6 7 8 10 15 15 16 22 24 25 25 23 24 23 23 26 24 23 23 22 21 20 20
10 10 11 13 11 12 13 11 14 15 17 21 18 13 9 1 10 9 8 7 3 4 2 3 2 4 6 5 5 7 10 7 7 9 11 12 11 10 9 9 12 13 13 15 15 14 13 12 14 17 16 15 14 11 11 10 10 12 13 11 10 8 6 7 7 7 4 5 8 13 14 14 20 23 25 25 23 25 24 22 24 25 24 23 21 22 21 20
9 10 11 12 11 12 11 11 15 20 21 21 19 14 9 2 7 7 7 5 3 4 2 3 2 4 5 6 7 8 9 8 6 10 11 11 12 10 9 9 12 14 14 14 16 15 13 11 13 17 17 15 14 12 10 8 10 13 13 13 12 8 9 11 8 7 4 6 9 11 11 9 15 21 24 25 24 24 24 23 24 25 25 24 23 22 20 20
9 10 11 11 12 11 12 13 16 21 20 12 9 10 6 4 4 3 4 3 3 7 5 5 3 2 2 5 8 8 8 8 7 9 10 11 13 10 9 9 12 13 12 13 14 15 15 12 11 16 16 14 13 14 13 9 12 13 8 7 10 10 15 14 7 6 7 5 6 11 10 4 9 19 23 25 25 24 24 24 25 25 25 25 25 23 21 21
8 10 11 11 12 12 13 13 12 16 13 5 5 4 1 6 6 7 8 5 4 8 3 3 3 1 2 5 10 6 4 6 8 8 9 12 12 11 11 10 12 12 9 11 12 13 16 14 12 15 15 16 14 14 15 12 13 10 2 4 5 8 13 11 7 8 9 6 5 11 13 6 9 17 22 26 27 27 27 26 26 26 26 26 26 24 23 23
8 10 11 11 13 13 13 13 11 12 10 2 2 3 4 5 8 8 7 3 6 6 2 1 5 2 2 6 10 4 3 6 9 6 6 11 11 10 9 7 11 12 8 11 12 12 16 15 14 15 12 14 13 13 15 15 14 9 3 5 4 6 11 11 10 11 11 8 7 13 13 8 7 12 20 27 29 31 31 29 30 29 27 26 26 24 23 24
7 9 10 11 12 13 13 14 13 11 10 6 3 5 5 8 10 7 7 4 6 5 4 3 3 3 5 7 8 4 4 6 7 5 5 10 13 13 12 6 8 13 10 11 15 12 12 12 10 13 12 11 11 11 14 16 15 9 4 5 5 6 10 11 11 11 12 8 9 16 16 8 4 9 18 24 28 34 35 31 31 30 27 26 26 25 23 23
7 8 9 10 10 12 12 11 11 9 9 7 6 7 8 8 8 8 6 2 5 4 5 4 3 5 8 8 7 5 6 6 3 5 7 8 11 14 15 8 6 13 10 13 19 10 5 9 10 11 13 12 11 11 14 15 13 8 4 5 7 8 6 8 11 10 9 7 6 10 14 8 3 7 15 19 22 29 34 34 30 29 30 28 27 26 25 24
6 7 8 8 8 10 9 9 9 9 8 8 9 9 9 6 7 8 4 5 1 4 4 2 4 5 8 7 5 6 8 6 2 7 9 6 10 12 12 9 7 11 9 13 20 13 8 12 12 10 12 12 13 13 14 14 12 10 9 7 10 10 9 11 12 9 7 5 0 4 10 9 7 7 10 11 14 21 29 35 34 31 31 29 28 26 25 26
4 7 7 7 8 8 8 8 8 8 9 9 10 10 8 7 8 4 7 3 3 5 3 4 2 4 8 4 4 5 8 6 3 8 9 7 11 12 12 13 10 9 10 12 16 13 12 13 9 8 11 13 14 13 15 16 13 10 10 9 10 9 8 9 7 5 7 3 2 1 6 7 10 10 10 11 12 15 20 29 34 33 30 28 28 26 25 26
3 6 6 7 7 7 7 6 5 6 9 9 10 10 8 9 6 6 8 5 3 6 3 3 1 5 5 5 5 5 7 5 3 7 9 9 11 13 12 13 10 9 10 11 15 14 12 14 13 11 13 16 15 14 17 20 16 12 13 12 10 7 4 5 5 5 8 2 3 2 5 5 8 10 10 9 9 11 14 23 31 32 30 27 26 26 26 26
3 5 6 6 6 5 5 4 4 5 8 10 10 9 10 7 6 8 8 9 6 3 3 1 3 2 2 4 4 6 6 3 4 7 8 9 11 13 13 12 11 10 11 9 14 17 12 12 17 16 14 17 18 17 15 13 13 15 17 17 14 11 6 4 4 5 8 1 7 7 3 4 4 3 6 7 7 8 11 18 27 30 29 26 25 27 27 26
3 5 5 4 4 4 4 2 2 5 8 11 10 10 10 5 9 11 7 8 8 2 5 2 4 2 3 3 1 5 7 3 4 8 7 8 10 10 10 12 11 10 11 8 8 15 16 13 15 16 12 15 20 20 14 7 8 10 14 19 19 15 11 8 4 6 9 5 5 8 3 4 4 2 8 12 10 10 10 14 23 28 30 28 26 28 29 29
4 5 5 3 2 1 1 2 2 5 8 11 12 11 6 3 7 10 6 8 10 2 4 4 3 5 7 5 4 5 8 3 5 9 8 8 8 7 7 9 9 7 8 7 7 12 14 12 11 13 12 13 16 19 17 14 10 6 10 19 19 16 15 12 6 8 12 8 4 10 9 9 8 5 10 13 11 13 12 13 17 22 28 31 31 30 30 30
2 4 5 6 5 4 2 3 3 5 9 11 13 11 8 5 7 8 5 7 8 2 5 8 2 5 7 2 3 2 8 4 4 6 7 7 6 7 6 4 6 5 4 5 9 12 9 4 9 12 10 11 11 13 17 19 17 11 8 10 13 17 19 15 8 7 10 8 3 9 13 13 10 8 12 15 14 16 15 12 13 16 24 31 34 33 30 30
2 4 5 2 5 4 2 6 4 6 10 12 11 6 6 8 8 7 5 6 6 4 8 10 3 2 5 4 2 4 6 4 4 5 7 6 5 7 5 2 6 5 6 5 6 7 8 6 9 11 9 11 10 10 14 19 22 20 12 7 7 14 16 14 9 6 5 5 3 4 9 8 6 8 13 15 16 18 18 15 13 13 19 26 32 33 32 31
7 8 4 5 5 5 5 7 4 6 8 13 9 3 3 8 7 5 6 6 5 5 8 7 2 1 4 5 1 4 1 1 3 5 5 5 4 5 6 4 6 5 5 8 7 7 9 10 8 9 10 11 11 13 15 17 21 22 17 12 9 10 11 13 14 11 7 4 3 4 4 5 5 7 9 11 14 16 18 18 15 12 14 18 25 32 34 33
6 6 4 6 6 5 4 6 7 9 11 11 8 6 5 7 7 6 6 6 5 4 6 7 4 4 4 3 0 3 0 1 3 3 5 5 2 4 5 4 6 4 3 9 10 11 10 8 8 7 9 12 13 15 16 16 18 21 20 14 10 9 8 9 12 15 12 6 3 5 2 7 7 8 11 14 14 16 18 19 18 15 13 15 20 27 34 34
6 4 4 5 9 7 1 3 7 11 11 6 2 6 5 5 7 7 4 5 6 3 4 7 4 6 7 2 1 4 1 2 3 1 4 6 2 3 3 2 4 5 4 6 9 10 8 7 7 6 6 10 12 13 14 15 16 18 21 18 11 10 9 8 8 10 13 11 8 8 2 7 7 7 13 17 15 16 18 16 17 17 13 15 18 23 30 34
6 2 4 6 10 6 2 7 9 8 6 2 1 4 5 4 6 7 3 4 6 3 4 6 3 6 9 2 2 4 1 0 2 2 3 5 1 3 2 1 5 6 6 6 7 7 10 9 10 11 11 9 9 10 13 15 16 15 19 20 16 14 14 11 8 8 11 11 12 13 3 8 8 7 9 12 11 13 16 14 17 19 17 15 18 20 26 32
3 4 6 10 9 4 3 8 7 6 4 4 4 5 4 4 4 8 6 3 5 5 6 5 2 4 5 2 4 3 1 1 2 3 2 4 3 3 3 2 4 5 6 7 5 6 9 12 11 14 17 14 11 12 13 14 16 16 15 16 18 19 18 15 10 9 12 13 12 10 1 9 10 9 6 8 9 12 14 15 17 20 19 16 17 19 21 27
2 2 7 9 6 5 4 9 8 5 3 3 5 4 2 3 3 6 6 4 5 5 6 5 2 3 1 1 5 4 3 1 2 2 1 2 3 1 1 2 3 4 5 7 7 8 6 8 8 10 12 9 10 12 14 13 14 16 13 12 14 15 17 18 14 12 12 12 14 10 3 8 11 13 8 5 7 11 14 18 19 19 19 18 17 18 20 24
4 0 3 4 4 4 7 11 11 6 1 3 4 3 3 1 3 4 2 3 5 3 4 4 2 2 3 3 2 1 2 3 2 3 2 2 2 0 1 1 3 5 5 6 8 6 6 5 6 9 9 6 6 6 4 4 6 10 11 15 16 15 16 17 16 15 11 11 15 9 6 12 11 12 9 4 3 8 13 16 18 18 19 19 18 18 19 22
2 4 5 5 5 8 9 6 6 6 3 3 3 1 2 1 4 3 1 3 4 2 3 3 2 3 3 2 3 2 4 3 2 2 4 3 1 1 2 3 5 6 7 5 4 5 6 7 7 11 13 10 10 12 8 6 7 8 12 17 18 14 15 16 15 15 12 11 10 2 13 15 10 7 5 4 4 5 11 15 17 17 18 19 18 18 18 19
2 5 8 7 5 6 6 4 5 5 3 1 3 3 4 4 2 1 2 4 2 2 4 3 2 4 2 2 4 3 3 4 2 1 5 4 2 1 2 4 5 5 7 5 3 3 7 9 9 11 14 14 12 11 10 10 12 11 11 16 17 14 16 18 16 11 10 9 2 11 13 11 8 4 3 5 4 3 7 14 15 15 16 17 16 16 16 18
4 6 8 6 6 4 7 2 4 4 3 2 2 3 5 4 2 2 2 5 2 2 4 3 2 2 1 1 2 2 4 4 1 0 4 4 4 6 6 4 3 4 7 5 3 2 4 8 9 10 13 14 13 12 11 11 14 15 11 10 11 13 15 16 16 13 12 12 4 4 4 5 8 5 4 4 5 5 2 7 10 9 11 13 14 14 15 19
7 8 6 5 7 8 7 1 2 3 3 4 2 2 4 3 1 3 2 3 3 2 2 3 2 1 2 1 2 2 2 1 1 3 4 5 4 4 6 5 5 5 7 5 4 5 6 8 9 10 11 12 15 17 16 15 15 14 12 8 8 11 12 10 13 15 16 18 13 4 2 1 5 4 4 5 6 6 5 4 6 7 8 11 14 15 17 19
11 12 10 7 7 8 6 3 4 5 4 5 6 4 4 2 1 0 2 1 5 2 1 2 1 1 3 2 0 2 0 2 2 3 3 5 5 4 6 7 6 5 6 6 6 8 8 7 7 9 10 10 13 15 15 15 16 14 10 8 8 9 11 9 7 9 11 13 13 6 5 4 4 2 3 6 8 8 7 5 6 7 7 10 15 18 20 19
17 14 10 9 6 7 8 6 5 6 6 6 4 4 3 3 2 1 2 2 4 2 2 3 2 2 2 1 0 1 1 2 3 2 2 3 4 4 5 4 4 6 7 7 5 6 8 7 7 8 10 10 11 9 5 5 10 12 7 5 5 6 10 10 9 10 11 11 10 8 4 3 3 2 4 7 9 10 9 6 7 8 8 11 14 15 18 19
14 15 13 11 7 7 8 8 6 7 7 4 3 3 3 3 3 4 4 4 3 4 3 3 2 3 3 2 2 2 0 1 3 3 3 3 3 3 4 4 5 6 6 5 5 6 7 8 7 7 8 9 9 8 7 7 5 3 3 3 6 6 7 9 7 6 7 8 7 7 5 2 1 2 5 8 10 11 11 10 9 8 7 9 10 9 12 17
Wind_Direction
334 328 321 313 304 298 293 289 287 282 278 275 270 267 262 259 256 254 252 249 247 246 247 245 245 245 243 241 239 237 236 237 239 242 241 238 235 231 229 229 227 226 227 224 225 224 223 231 19 13 30 6 323 286 285 298 304 296 302 316 319 227 165 165 160 159 166 162 158 155 153 150 144 146 138 130 138 137 125 121 120 126 138 152 157 150 149 149
333 330 327 321 313 305 296 292 289 287 285 281 278 275 271 267 263 259 256 253 250 247 247 245 245 244 244 242 239 239 238 237 238 241 240 239 237 231 228 228 227 225 225 222 222 223 215 164 13 355 9 297 281 277 282 300 298 295 310 322 311 207 168 162 160 160 165 163 158 154 153 150 145 145 138 136 139 129 119 122 129 139 152 164 157 149 150 149
333 331 329 326 320 313 304 297 291 288 287 285 285 281 279 276 272 268 263 259 254 250 247 246 244 244 244 242 240 239 239 239 239 238 236 237 236 233 228 226 226 224 222 219 217 219 208 157 342 301 283 271 285 301 283 290 304 305 314 318 302 183 167 161 157 156 161 161 158 152 149 148 146 143 136 135 130 124 129 136 142 152 159 159 153 152 151 150
336 333 331 328 324 319 311 304 297 292 288 286 287 285 284 281 279 277 272 268 262 256 250 247 244 244 244 243 242 238 239 246 245 237 232 236 234 234 230 224 225 222 221 220 217 215 206 173 177 255 260 264 277 283 284 291 306 318 316 297 254 162 162 159 153 152 154 154 153 147 144 146 145 140 136 134 130 130 138 143 150 157 156 150 151 152 149 152
340 336 333 330 327 324 316 309 302 297 293 289 286 285 286 284 283 282 279 276 269 263 256 250 246 243 243 244 240 240 237 245 249 237 225 234 230 231 230 224 223 220 218 217 217 214 206 186 170 248 257 264 274 275 295 299 303 319 320 294 165 154 154 152 154 153 148 146 148 144 143 145 142 141 138 135 135 137 139 146 151 153 150 147 149 148 149 153
344 339 336 331 328 326 321 316 307 301 298 294 290 286 285 285 285 284 284 283 277 271 263 255 249 243 242 243 240 240 223 216 247 239 223 231 226 225 226 224 223 219 219 214 214 211 203 193 175 243 252 272 284 283 300 303 308 323 319 289 160 152 150 149 154 152 144 144 146 143 145 145 142 143 139 136 139 139 140 145 150 151 149 147 147 144 145 149
346 343 338 334 331 327 324 319 311 303 297 294 293 289 285 286 286 286 286 284 282 276 270 263 254 245 241 241 239 239 225 233 250 240 228 230 225 225 222 223 222 219 220 213 210 205 198 195 179 243 251 273 282 282 293 297 320 330 319 278 164 155 153 148 149 151 145 144 146 144 144 143 145 144 138 141 141 137 139 145 151 149 145 145 144 142 143 145
348 346 341 336 333 329 327 321 312 306 300 293 289 287 286 285 285 287 285 283 282 279 275 267 259 250 241 238 239 239 234 248 247 234 232 230 224 227 220 222 222 219 219 209 207 198 189 199 201 243 259 268 278 311 295 295 325 328 327 153 151 151 148 140 143 152 148 142 144 144 143 140 145 146 141 142 138 136 141 147 150 145 141 142 142 143 144 145
349 348 343 339 335 332 330 324 316 308 304 299 293 288 285 285 283 283 282 281 279 278 277 270 264 254 241 235 234 233 228 247 244 228 229 229 221 225 218 218 217 215 216 207 204 193 181 194 212 251 269 269 275 341 295 290 318 321 20 127 149 147 136 136 145 152 147 143 143 145 145 141 144 143 139 137 136 139 144 147 146 143 142 141 144 147 145 148
350 350 346 342 338 336 334 327 321 313 308 305 302 298 290 287 283 281 279 277 276 275 275 270 264 253 242 233 224 226 238 249 250 231 223 230 221 221 215 212 212 208 209 204 202 195 176 170 221 274 275 269 272 354 310 279 295 305 114 129 146 144 135 140 148 148 145 146 146 149 148 144 146 143 138 135 139 145 145 146 145 144 144 144 149 151 147 150
350 351 349 346 343 342 338 331 324 317 311 308 309 309 303 296 288 284 279 275 272 270 268 265 264 251 240 231 215 223 245 246 249 235 223 229 224 220 213 209 210 203 202 198 197 193 171 168 235 275 272 273 306 316 278 259 278 296 135 141 132 131 135 140 147 147 149 152 151 154 149 144 147 147 142 137 142 150 148 148 147 145 146 147 154 154 149 152
350 353 352 348 346 346 342 336 328 321 318 315 316 317 315 312 303 295 287 280 271 264 263 259 259 249 237 230 216 226 242 240 244 243 231 229 225 219 212 206 205 203 195 185 196 196 174 182 233 253 255 255 350 331 215 244 277 66 124 142 129 125 134 141 146 148 151 154 154 155 150 146 150 151 145 139 148 155 151 150 148 148 149 151 158 155 151 158
351 353 353 350 348 349 346 342 335 331 328 325 326 327 328 326 323 315 302 293 280 267 262 256 255 249 224 206 222 232 237 240 245 250 243 232 226 221 213 206 201 203 188 168 207 211 182 201 227 225 243 226 88 351 258 288 301 118 121 134 135 129 131 145 152 153 156 161 160 155 151 153 155 157 150 147 156 157 153 154 151 152 153 156 161 155 156 164
352 355 353 349 351 354 351 350 345 343 340 337 337 335 337 338 336 333 321 309 292 273 264 258 252 244 214 205 240 241 236 240 242 247 249 233 226 222 214 208 202 201 188 172 193 218 207 224 218 202 220 225 229 256 239 262 275 208 147 148 156 147 148 156 158 162 165 167 169 165 160 164 161 163 159 154 159 157 155 158 155 155 155 160 162 155 162 165
354 356 353 351 357 358 356 356 353 354 351 348 347 343 345 345 342 342 335 323 303 280 264 255 245 240 219 240 264 256 237 239 241 241 244 231 225 222 211 211 207 201 197 184 178 215 225 221 211 200 213 235 241 243 216 223 236 220 171 177 181 169 171 179 175 174 176 172 175 175 167 168 168 173 169 159 160 158 158 161 160 159 158 164 162 155 165 159
358 358 357 358 2 1 1 360 358 359 357 355 354 351 350 349 348 347 342 334 316 297 273 258 238 185 123 277 275 273 242 230 235 235 237 232 222 222 213 209 211 211 213 199 189 213 222 213 207 207 217 237 241 238 231 217 210 212 222 212 186 172 171 189 194 186 188 181 178 179 170 171 175 178 174 165 161 157 161 165 164 164 162 167 161 157 169 157
2 4 4 5 6 6 4 0 0 360 358 357 355 356 358 0 357 348 346 343 344 11 351 323 159 172 165 302 295 309 271 206 224 226 224 217 197 217 217 205 207 215 220 213 208 220 224 215 209 209 215 225 233 231 236 229 195 184 222 243 186 191 188 195 204 197 197 191 184 182 172 177 181 177 176 172 163 157 165 170 169 169 165 169 164 161 174 162
9 11 11 11 10 8 5 1 0 358 358 358 1 10 15 18 13 2 356 349 82 56 20 50 91 36 276 323 326 291 186 192 210 211 206 195 189 210 208 199 206 212 218 224 227 228 224 218 212 219 225 219 224 226 233 240 180 161 219 236 175 209 214 203 210 208 202 196 188 185 178 181 185 178 177 178 165 158 169 174 172 174 169 171 167 168 180 167
16 19 16 14 13 8 6 1 358 360 2 6 18 35 34 28 18 6 4 55 125 52 14 109 102 47 20 40 122 174 198 204 197 191 199 192 199 207 186 186 202 204 210 223 233 222 209 214 212 221 226 220 224 227 232 238 245 335 237 197 163 202 222 212 213 212 204 199 193 191 189 187 184 180 180 181 171 163 170 177 176 178 176 173 168 175 185 171
22 24 20 18 15 10 8 6 8 11 12 21 34 47 31 18 10 3 6 35 65 14 349 163 100 22 359 354 174 190 221 221 186 181 199 187 185 189 180 188 194 195 203 209 224 212 201 213 216 219 222 222 225 229 242 248 259 289 232 193 158 197 222 210 207 218 207 203 198 195 198 198 189 183 182 181 177 172 173 177 180 183 182 176 172 180 185 174
25 25 22 21 19 18 21 22 25 24 25 31 34 52 34 4 341 2 354 350 354 341 271 249 240 230 213 147 192 235 238 198 172 188 203 183 168 178 191 193 189 202 206 202 214 206 207 219 221 223 223 227 235 237 247 255 258 220 192 156 68 159 217 218 220 227 207 201 198 193 197 203 195 187 184 182 182 181 178 177 179 186 186 178 176 182 182 176
25 23 23 27 28 33 35 36 39 36 37 31 20 48 25 331 265 165 43 18 321 308 298 260 219 216 203 178 250 245 180 171 189 198 202 181 168 180 199 202 196 208 208 204 213 205 214 226 224 225 226 230 237 237 243 251 259 238 209 198 196 214 234 206 211 213 201 197 193 194 195 197 195 191 187 186 186 184 184 181 177 184 188 180 179 186 187 183
25 24 29 37 39 44 44 48 46 40 41 28 20 42 2 315 144 127 106 99 270 313 335 250 185 221 224 244 275 209 177 197 197 199 205 180 169 180 196 208 202 209 211 208 214 209 216 229 225 222 226 230 230 234 242 249 257 250 249 235 204 219 225 167 184 190 193 201 203 199 187 182 191 193 192 191 189 185 187 186 178 182 190 184 183 189 190 187
28 30 41 46 48 49 46 52 47 43 45 29 21 26 353 335 125 127 105 108 235 329 351 217 175 208 231 256 253 192 183 205 198 210 213 176 171 190 197 209 209 213 216 211 218 224 227 232 223 219 224 226 222 230 240 248 250 243 251 238 191 191 198 163 156 150 163 256 246 205 186 188 195 195 197 196 194 191 194 194 181 181 191 187 185 192 190 189
34 42 54 54 53 52 42 51 51 42 38 24 10 359 341 55 137 146 90 102 163 58 96 163 140 213 234 227 201 167 186 224 210 211 217 178 173 195 201 213 214 215 219 214 221 230 234 233 219 216 222 220 213 218 224 238 246 245 257 242 208 191 181 167 153 139 159 268 255 203 190 211 206 200 202 200 200 199 196 199 190 184 190 186 186 195 190 189
46 57 64 60 57 52 40 48 56 45 31 7 347 332 324 65 106 115 24 276 152 74 108 112 78 194 191 189 173 153 193 223 194 203 222 183 178 207 218 220 215 217 224 218 222 231 234 235 214 211 219 212 207 219 223 238 248 250 278 258 225 200 178 178 189 172 177 221 238 214 210 238 213 205 204 200 204 206 198 199 196 190 191 187 187 195 189 189
59 69 70 66 59 52 43 44 54 55 41 328 297 318 97 75 40 25 353 271 118 69 120 100 22 170 121 177 171 154 176 178 179 210 218 182 178 205 209 210 212 218 230 220 221 226 230 232 212 217 225 205 205 225 223 233 243 234 310 322 248 201 181 185 202 196 190 183 192 215 218 232 221 209 204 199 201 207 205 202 200 196 194 189 187 193 193 192
72 80 76 70 62 57 53 50 51 64 73 138 199 101 95 36 5 9 340 308 80 64 115 316 296 240 151 188 187 218 249 194 197 197 193 187 174 180 203 220 215 217 217 214 221 218 224 231 211 210 218 198 207 230 219 223 237 233 287 299 254 209 205 205 207 198 182 174 183 196 204 224 221 199 198 198 198 203 205 204 203 200 198 193 188 191 197 196
81 90 83 76 70 67 64 60 56 64 78 91 83 53 26 4 7 346 296 318 70 80 88 32 314 161 157 186 188 223 229 207 212 183 182 201 178 180 214 231 216 222 221 221 225 210 216 236 211 200 213 209 217 231 224 223 228 234 279 274 258 253 225 211 218 200 169 185 219 200 195 210 203 182 192 197 201 206 204 203 204 202 201 198 190 188 197 198
92 99 92 83 78 78 74 66 58 56 59 51 29 9 350 359 358 305 288 34 71 76 81 43 36 143 170 180 177 192 184 169 192 190 192 212 195 193 208 203 213 228 224 230 233 228 232 226 206 214 228 228 229 232 234 230 225 234 253 244 252 261 245 234 242 226 193 214 236 193 191 214 230 195 204 208 215 216 209 202 200 201 206 204 195 190 193 200
98 107 100 90 87 89 84 68 54 44 38 23 5 351 341 339 294 284 11 48 2 52 90 117 77 153 181 184 196 200 189 174 169 196 189 203 206 202 209 207 219 224 215 233 239 243 244 207 193 220 231 227 233 235 234 231 229 239 241 240 246 235 229 244 240 232 240 244 78 160 185 218 242 214 225 243 240 230 217 207 201 200 205 204 199 194 192 200
106 115 105 94 92 93 84 67 47 27 23 6 353 356 345 305 276 296 38 2 286 42 77 162 113 210 195 193 241 201 186 188 173 192 190 192 195 193 209 210 201 209 212 224 230 227 224 213 205 229 227 222 230 231 227 224 220 229 232 234 247 232 213 237 234 227 258 264 41 260 180 207 245 237 250 266 248 237 225 212 205 201 202 201 200 197 194 200
108 119 113 104 102 102 89 69 42 21 17 354 348 2 324 291 309 5 18 15 32 30 7 185 266 281 205 198 236 191 179 183 174 200 195 190 192 187 206 219 206 219 234 224 217 211 212 221 224 230 229 221 221 224 220 211 202 214 227 224 237 239 207 234 253 265 270 249 119 197 177 190 243 249 254 253 231 229 226 212 204 201 203 205 204 202 197 199
105 125 123 111 104 107 96 64 32 22 13 356 348 335 300 299 8 5 16 44 40 19 20 250 262 346 155 210 224 172 174 180 195 218 202 192 203 197 207 223 214 236 263 243 220 215 213 221 216 213 221 214 211 226 230 213 207 218 222 222 232 245 249 245 233 253 274 254 141 168 191 211 231 237 213 200 196 209 213 205 202 205 208 208 207 205 200 198
103 119 126 132 133 123 114 96 29 13 14 3 337 303 298 345 16 1 22 28 346 5 63 349 231 189 179 177 124 205 227 279 210 207 205 207 213 206 211 212 207 243 255 232 233 228 225 238 221 202 205 205 206 222 233 238 242 226 206 215 229 240 256 263 248 251 269 282 167 167 168 201 208 195 177 177 185 189 186 193 198 206 211 209 208 204 201 201
109 110 96 83 81 84 69 75 27 0 6 352 323 303 311 16 9 359 16 359 345 34 51 352 217 245 241 169 98 220 223 276 236 205 199 210 208 202 215 205 201 252 246 225 283 261 238 243 213 185 192 201 205 217 222 224 243 243 200 213 223 231 249 262 265 250 255 269 204 157 148 164 175 192 189 184 193 190 183 186 192 203 209 209 211 208 205 206
137 119 69 30 357 300 292 75 63 8 358 334 318 321 339 16 15 359 351 339 345 5 331 330 303 302 288 194 66 203 194 201 230 210 193 192 186 187 207 201 198 262 286 258 286 284 279 261 172 170 193 198 196 214 220 221 231 245 235 220 214 221 245 265 271 245 235 251 233 155 160 169 167 178 185 181 189 193 192 196 190 196 205 207 211 210 206 208
103 89 64 350 310 309 93 94 76 20 354 320 309 314 331 4 17 4 347 324 320 333 334 326 294 320 332 336 27 160 177 176 170 182 187 169 152 191 223 223 200 259 299 265 272 282 288 274 190 186 205 198 194 216 223 219 223 237 256 272 235 218 228 244 255 272 257 255 275 180 175 175 178 189 185 182 188 189 190 201 204 198 204 209 211 209 206 208
82 56 47 227 282 347 98 98 35 1 328 306 317 357 347 360 13 3 340 317 317 342 340 335 333 341 359 6 32 166 118 7 168 171 182 159 143 215 258 256 215 265 279 235 250 275 277 280 237 207 218 217 208 217 224 217 217 230 248 267 267 237 224 225 223 229 248 264 275 238 189 140 163 196 190 186 191 194 195 203 214 213 210 213 211 208 206 205
86 14 320 224 275 318 104 73 353 312 285 289 327 355 338 350 8 8 349 323 322 337 334 337 335 311 338 51 325 257 242 240 222 175 176 182 190 247 273 269 238 284 280 218 246 278 275 262 233 209 221 227 216 214 220 215 207 217 230 240 248 241 249 263 236 219 227 245 261 259 203 134 163 191 189 188 191 206 209 201 207 216 214 214 211 208 207 205
96 332 270 222 269 277 158 356 312 291 283 277 352 353 344 338 344 351 346 332 331 311 331 334 307 309 327 53 52 310 290 198 231 138 163 195 271 287 221 230 265 308 317 226 237 270 270 254 249 237 221 225 223 216 218 219 210 209 220 227 236 237 236 254 254 235 235 233 229 250 225 127 159 176 181 192 194 202 205 194 199 216 218 210 207 206 207 207
83 347 245 257 278 267 249 286 283 282 299 355 14 334 358 347 338 344 314 317 336 307 332 342 297 315 333 28 51 317 307 125 211 130 139 194 287 14 130 220 267 283 294 248 235 263 261 264 279 270 267 272 251 221 215 224 224 219 220 221 226 236 236 240 247 249 255 253 244 247 222 117 148 161 177 202 196 188 196 191 195 209 215 211 206 205 207 207
42 307 284 287 276 227 250 288 286 264 277 354 308 276 338 342 341 358 355 4 354 320 326 337 297 328 344 31 6 342 109 91 181 130 85 199 186 47 34 352 250 260 289 273 292 322 267 252 266 275 285 298 276 233 213 216 224 226 226 222 223 230 237 244 250 250 255 261 264 261 153 117 157 167 177 210 188 175 191 197 199 205 208 210 209 209 210 208
62 308 310 299 253 197 243 289 297 271 229 332 310 264 291 320 311 338 356 22 6 339 337 341 7 38 34 258 349 23 100 134 184 172 295 194 162 114 346 317 260 284 307 275 293 336 306 253 253 275 286 283 261 228 194 192 220 233 234 226 225 229 233 239 252 270 272 272 289 307 81 135 173 174 174 192 163 154 174 192 203 205 204 205 206 209 212 209
108 122 298 284 248 236 266 287 300 315 265 258 295 290 244 259 6 333 326 350 341 344 338 329 322 313 276 257 320 50 170 230 246 246 242 151 102 227 227 262 295 328 332 274 266 293 308 280 249 267 269 250 282 291 198 192 250 252 245 240 238 231 228 236 244 254 261 263 278 297 122 147 175 179 183 195 149 138 155 185 203 202 199 204 203 202 208 210
170 310 286 262 264 259 260 276 295 326 351 236 240 295 250 348 19 357 353 343 336 353 326 305 298 315 305 266 280 234 205 255 300 254 227 214 213 201 213 254 278 312 326 307 268 252 277 290 265 266 272 274 308 321 306 285 276 253 238 247 255 241 223 233 240 244 253 248 244 135 115 139 159 173 172 166 186 160 148 176 204 209 201 199 201 199 199 204
191 327 306 276 250 258 274 261 243 279 339 183 216 253 272 303 313 232 14 356 336 4 341 309 313 325 322 301 298 273 257 293 353 175 238 258 292 290 271 250 239 287 332 338 313 253 261 277 268 258 264 267 280 291 277 263 266 261 240 238 251 251 237 234 231 243 268 261 172 84 91 115 132 168 176 146 198 224 148 166 195 213 209 199 198 196 194 199
244 304 306 271 225 275 314 276 213 261 283 248 269 257 262 290 264 220 5 15 11 12 2 348 319 302 288 319 307 283 283 294 331 290 257 269 291 272 257 236 218 308 332 312 272 266 263 276 279 267 260 253 247 252 254 247 250 258 259 253 257 269 268 247 230 237 256 261 271 65 81 110 123 170 224 202 221 248 204 172 182 205 223 212 197 188 191 201
248 260 261 242 237 282 316 269 209 290 250 235 282 266 255 287 308 247 268 1 356 335 347 350 333 318 345 319 261 289 294 220 259 288 245 245 297 285 253 262 274 303 322 310 312 335 303 280 283 281 273 261 249 245 238 233 241 249 260 288 305 306 302 270 238 239 244 252 266 300 14 133 164 193 251 242 230 233 247 243 209 213 231 222 207 193 190 197
229 231 229 213 229 269 281 244 262 273 244 256 272 255 240 259 345 243 195 331 348 346 320 325 304 339 356 7 317 330 280 201 270 314 241 245 287 292 267 279 282 278 294 301 319 332 312 287 288 286 278 272 265 256 238 233 241 242 251 288 307 312 322 321 287 272 267 268 273 296 28 78 160 216 265 246 244 238 237 254 248 236 221 203 200 193 185 184
218 223 220 190 204 263 252 239 263 258 248 262 253 222 224 240 261 260 205 279 329 331 327 334 312 274 313 332 73 47 107 225 263 286 275 264 276 273 261 270 272 272 288 294 291 305 305 297 296 285 270 264 270 280 296 278 252 233 236 303 326 329 333 333 337 343 336 322 303 290 311 85 141 215 233 239 243 229 222 233 236 230 214 190 180 178 180 179
216 223 220 200 217 269 245 232 247 251 255 248 198 219 265 260 252 249 254 290 291 248 273 320 289 276 288 258 221 211 195 316 288 273 273 272 272 268 258 262 266 268 282 291 278 283 293 293 298 293 272 267 282 306 336 340 318 217 173 14 14 16 348 312 304 344 349 333 328 318 312 323 297 265 230 233 236 224 219 221 222 228 232 211 186 175 189 188
Height
3148 3148 3147 3146 3146 3145 3145 3144 3144 3143 3143 3142 3142 3142 3142 3142 3142 3143 3143 3143 3144 3144 3144 3145 3145 3146 3147 3147 3148 3148 3149 3149 3149 3150 3151 3152 3153 3154 3156 3157 3158 3159 3160 3160 3161 3161 3162 3162 3162 3162 3162 3164 3165 3166 3167 3166 3166 3165 3164 3164 3164 3164 3164 3166 3166 3167 3169 3169 3170 3172 3173 3174 3175 3176 3177 3179 3181 3182 3183 3185 3186 3188 3189 3188 3188 3189 3190 3192
3148 3147 3147 3146 3145 3145 3144 3144 3143 3142 3142 3142 3142 3141 3141 3141 3141 3142 3142 3142 3143 3143 3143 3143 3144 3145 3145 3146 3147 3147 3148 3148 3148 3149 3150 3151 3152 3153 3154 3156 3157 3158 3159 3160 3160 3161 3162 3162 3163 3163 3164 3165 3166 3166 3166 3166 3166 3166 3165 3164 3162 3163 3164 3165 3166 3167 3170 3170 3171 3173 3174 3175 3176 3177 3178 3179 3181 3182 3184 3186 3187 3188 3188 3188 3189 3190 3191 3193
3147 3147 3146 3145 3145 3144 3143 3143 3142 3142 3141 3141 3141 3141 3141 3141 3141 3141 3141 3141 3141 3142 3142 3142 3143 3144 3144 3145 3146 3146 3147 3147 3147 3147 3149 3150 3151 3152 3153 3155 3156 3157 3158 3159 3160 3161 3161 3162 3165 3166 3166 3167 3167 3167 3166 3166 3166 3165 3164 3163 3161 3161 3163 3165 3166 3168 3170 3171 3172 3173 3174 3176 3177 3178 3179 3180 3181 3184 3185 3186 3186 3186 3187 3188 3189 3191 3192 3194
3146 3146 3145 3145 3144 3144 3143 3142 3142 3141 3141 3140 3140 3140 3140 3140 3140 3140 3140 3140 3140 3141 3141 3142 3142 3143 3143 3144 3145 3145 3146 3147 3145 3146 3148 3149 3150 3151 3152 3154 3154 3156 3157 3158 3159 3160 3161 3162 3165 3167 3167 3168 3167 3167 3166 3166 3165 3164 3163 3162 3161 3162 3164 3166 3167 3169 3170 3171 3172 3173 3174 3176 3177 3179 3180 3181 3182 3185 3186 3186 3186 3186 3187 3188 3190 3191 3193 3194
3146 3145 3144 3144 3143 3143 3142 3141 3141 3140 3140 3140 3139 3139 3139 3139 3139 3139 3139 3139 3139 3140 3140 3141 3141 3142 3143 3143 3144 3144 3146 3146 3143 3144 3148 3148 3149 3150 3151 3152 3153 3155 3156 3157 3159 3160 3161 3162 3164 3166 3168 3168 3167 3167 3166 3165 3164 3164 3162 3162 3162 3162 3164 3166 3168 3169 3171 3172 3173 3173 3175 3176 3178 3179 3180 3182 3183 3185 3187 3188 3187 3187 3188 3189 3191 3192 3194 3195
3145 3144 3144 3143 3142 3142 3141 3141 3140 3140 3139 3139 3139 3138 3138 3138 3138 3138 3138 3138 3138 3138 3138 3139 3140 3141 3142 3142 3143 3143 3145 3144 3140 3143 3147 3147 3148 3149 3150 3151 3152 3154 3155 3156 3158 3160 3161 3162 3164 3166 3168 3168 3167 3166 3166 3165 3163 3163 3162 3162 3163 3163 3164 3166 3168 3170 3171 3172 3173 3174 3176 3177 3178 3179 3181 3182 3184 3185 3187 3188 3188 3188 3189 3190 3192 3193 3195 3196
3145 3144 3143 3142 3141 3141 3140 3140 3139 3139 3138 3138 3138 3138 3138 3137 3137 3137 3137 3137 3137 3137 3138 3138 3139 3140 3141 3141 3142 3142 3144 3142 3139 3143 3146 3146 3147 3148 3149 3150 3151 3153 3154 3156 3158 3159 3161 3162 3164 3167 3168 3168 3168 3165 3165 3164 3164 3164 3162 3163 3164 3164 3164 3166 3168 3169 3171 3173 3174 3175 3177 3177 3178 3179 3181 3183 3184 3186 3188 3189 3189 3189 3190 3191 3193 3195 3197 3198
3144 3143 3143 3142 3141 3140 3140 3139 3139 3138 3138 3138 3137 3137 3137 3137 3137 3137 3137 3137 3137 3137 3137 3137 3138 3139 3139 3141 3141 3142 3144 3140 3137 3143 3145 3145 3147 3147 3149 3150 3151 3152 3154 3156 3157 3159 3161 3163 3164 3167 3168 3168 3167 3165 3164 3165 3164 3164 3163 3164 3166 3166 3165 3168 3171 3170 3171 3173 3174 3176 3177 3178 3180 3180 3181 3183 3185 3187 3189 3189 3189 3190 3191 3193 3194 3196 3198 3200
3144 3143 3142 3141 3140 3140 3139 3139 3138 3138 3137 3137 3137 3136 3136 3136 3136 3136 3136 3136 3136 3136 3136 3136 3137 3137 3138 3139 3140 3141 3142 3137 3136 3142 3144 3144 3146 3147 3148 3149 3150 3152 3153 3155 3156 3158 3160 3163 3165 3168 3168 3167 3167 3166 3166 3166 3165 3165 3165 3165 3166 3167 3168 3171 3172 3171 3172 3173 3175 3176 3177 3179 3180 3181 3182 3184 3186 3188 3190 3190 3190 3191 3193 3194 3196 3197 3199 3201
3144 3143 3142 3141 3140 3139 3139 3138 3138 3137 3137 3136 3136 3136 3136 3135 3135 3135 3135 3135 3135 3135 3135 3136 3136 3136 3137 3138 3140 3140 3139 3136 3137 3141 3143 3144 3145 3146 3148 3149 3150 3151 3152 3154 3156 3158 3160 3163 3166 3168 3168 3167 3166 3167 3168 3168 3166 3166 3167 3166 3167 3168 3169 3170 3171 3172 3174 3174 3175 3177 3178 3179 3180 3181 3183 3184 3187 3189 3190 3191 3191 3193 3194 3196 3197 3198 3200 3202
3143 3143 3142 3141 3140 3139 3138 3138 3137 3137 3136 3136 3136 3135 3135 3135 3135 3134 3134 3134 3134 3134 3134 3135 3135 3135 3136 3136 3139 3138 3136 3137 3138 3140 3143 3143 3144 3146 3147 3148 3149 3150 3152 3154 3156 3158 3159 3162 3166 3168 3168 3167 3167 3169 3168 3166 3167 3167 3167 3167 3168 3170 3169 3169 3172 3173 3175 3175 3176 3177 3179 3180 3181 3182 3183 3185 3188 3190 3191 3191 3192 3194 3195 3196 3197 3198 3200 3202
3143 3142 3141 3140 3140 3139 3138 3138 3137 3137 3136 3136 3136 3135 3135 3135 3134 3134 3134 3134 3134 3134 3134 3134 3134 3135 3135 3136 3137 3135 3135 3138 3138 3140 3142 3143 3144 3145 3146 3148 3149 3150 3151 3153 3156 3158 3159 3161 3164 3166 3168 3167 3167 3170 3167 3165 3168 3168 3168 3169 3169 3171 3171 3172 3173 3174 3175 3176 3177 3178 3180 3181 3181 3182 3184 3186 3189 3190 3191 3192 3193 3195 3196 3197 3197 3198 3201 3202
3143 3142 3141 3140 3140 3139 3138 3138 3137 3137 3137 3136 3136 3135 3135 3134 3134 3134 3133 3133 3133 3133 3133 3133 3134 3134 3134 3135 3135 3134 3136 3138 3138 3140 3141 3142 3143 3144 3146 3147 3148 3150 3150 3153 3157 3158 3159 3161 3162 3163 3166 3167 3168 3171 3167 3165 3170 3169 3169 3171 3171 3173 3174 3174 3175 3175 3176 3176 3177 3179 3180 3181 3182 3183 3184 3186 3188 3190 3191 3193 3194 3195 3196 3197 3197 3199 3201 3202
3143 3142 3141 3140 3140 3139 3138 3138 3137 3137 3137 3136 3136 3135 3135 3134 3134 3134 3133 3133 3133 3133 3133 3133 3134 3134 3134 3134 3134 3134 3136 3137 3138 3140 3140 3142 3143 3144 3146 3147 3148 3149 3150 3152 3155 3158 3159 3159 3160 3161 3163 3165 3167 3171 3170 3167 3168 3169 3170 3172 3173 3174 3175 3176 3175 3176 3176 3177 3178 3178 3179 3181 3182 3183 3184 3186 3188 3190 3192 3193 3194 3195 3196 3197 3197 3199 3200 3201
3143 3142 3141 3140 3140 3139 3138 3138 3137 3137 3136 3136 3136 3135 3135 3134 3134 3134 3133 3133 3132 3132 3132 3133 3133 3134 3134 3134 3134 3134 3135 3136 3138 3139 3140 3141 3142 3144 3145 3146 3148 3149 3150 3151 3154 3156 3157 3156 3159 3160 3162 3165 3166 3170 3172 3168 3167 3170 3171 3173 3174 3174 3175 3176 3175 3176 3177 3177 3178 3179 3179 3181 3182 3183 3184 3185 3187 3189 3192 3194 3195 3195 3196 3197 3198 3199 3201 3202
3143 3142 3141 3141 3140 3139 3139 3138 3137 3137 3136 3136 3135 3135 3134 3134 3134 3133 3133 3133 3132 3132 3133 3133 3133 3134 3135 3135 3134 3134 3135 3136 3137 3138 3140 3141 3142 3144 3145 3146 3148 3149 3150 3151 3152 3153 3154 3155 3158 3160 3162 3165 3167 3169 3170 3168 3168 3170 3172 3173 3173 3174 3175 3176 3175 3176 3177 3177 3178 3179 3179 3180 3182 3183 3184 3185 3187 3189 3192 3194 3195 3196 3197 3197 3198 3200 3201 3202
3143 3142 3142 3141 3140 3139 3138 3138 3137 3137 3136 3135 3135 3135 3134 3134 3134 3133 3133 3133 3133 3133 3133 3134 3134 3134 3134 3135 3134 3134 3135 3136 3136 3138 3139 3141 3142 3143 3144 3146 3148 3149 3150 3151 3152 3152 3154 3156 3157 3160 3162 3163 3166 3167 3168 3166 3166 3169 3171 3172 3172 3173 3174 3175 3175 3175 3176 3177 3178 3178 3179 3180 3181 3183 3184 3185 3187 3189 3192 3194 3195 3196 3197 3198 3199 3201 3201 3202
3144 3143 3142 3141 3140 3139 3139 3138 3137 3137 3136 3135 3135 3135 3135 3135 3134 3134 3133 3133 3133 3134 3135 3135 3135 3135 3135 3135 3135 3136 3136 3136 3136 3138 3139 3140 3142 3143 3144 3146 3147 3149 3150 3151 3152 3153 3155 3156 3158 3160 3162 3163 3164 3165 3165 3164 3165 3169 3171 3171 3172 3172 3171 3173 3173 3173 3175 3176 3177 3178 3179 3181 3182 3183 3184 3185 3187 3189 3192 3194 3195 3196 3197 3198 3200 3201 3201 3203
3144 3143 3142 3141 3140 3140 3139 3138 3137 3137 3136 3136 3135 3135 3135 3135 3135 3134 3134 3134 3134 3134 3136 3136 3135 3136 3136 3136 3137 3137 3137 3136 3137 3138 3139 3140 3141 3142 3144 3146 3148 3149 3151 3152 3153 3154 3155 3157 3158 3159 3161 3162 3163 3164 3164 3163 3163 3167 3170 3169 3171 3171 3170 3171 3172 3172 3174 3176 3177 3178 3179 3181 3182 3182 3184 3185 3186 3188 3191 3194 3195 3196 3197 3198 3200 3201 3201 3203
3145 3144 3143 3142 3141 3140 3139 3138 3137 3137 3136 3136 3136 3135 3135 3136 3136 3135 3135 3135 3135 3135 3136 3137 3136 3138 3138 3138 3137 3136 3136 3136 3137 3139 3139 3140 3141 3143 3145 3146 3148 3150 3151 3153 3154 3154 3156 3157 3157 3158 3159 3161 3162 3163 3163 3163 3162 3163 3168 3169 3169 3170 3170 3170 3171 3171 3174 3175 3177 3178 3179 3180 3181 3182 3184 3185 3186 3187 3190 3193 3195 3196 3196 3198 3200 3201 3201 3203
3145 3145 3144 3142 3141 3140 3139 3138 3138 3137 3137 3136 3136 3135 3135 3137 3138 3137 3136 3135 3136 3136 3137 3137 3137 3137 3138 3138 3138 3137 3136 3137 3138 3139 3140 3140 3142 3144 3145 3147 3149 3150 3151 3154 3155 3155 3156 3156 3156 3157 3159 3160 3162 3163 3162 3163 3163 3163 3165 3167 3167 3169 3170 3171 3171 3171 3174 3176 3177 3179 3179 3180 3181 3182 3183 3185 3186 3187 3188 3190 3194 3195 3196 3198 3200 3201 3201 3203
3146 3145 3144 3143 3142 3141 3140 3139 3139 3138 3137 3137 3137 3136 3136 3138 3137 3136 3136 3136 3138 3138 3137 3137 3136 3137 3137 3137 3138 3137 3138 3138 3139 3140 3140 3141 3143 3145 3146 3147 3149 3151 3151 3153 3154 3155 3155 3155 3156 3157 3159 3160 3161 3163 3162 3162 3163 3164 3164 3165 3167 3168 3169 3171 3170 3172 3174 3176 3178 3179 3180 3180 3181 3182 3183 3184 3185 3187 3188 3189 3192 3195 3196 3197 3199 3200 3201 3202
3147 3146 3145 3143 3142 3141 3141 3140 3140 3139 3139 3139 3138 3137 3138 3138 3136 3137 3136 3137 3139 3138 3137 3137 3137 3139 3138 3138 3138 3137 3138 3140 3141 3141 3140 3141 3143 3145 3147 3148 3149 3151 3152 3152 3153 3154 3154 3154 3155 3157 3158 3160 3161 3162 3162 3161 3163 3164 3163 3163 3165 3166 3168 3169 3170 3172 3174 3176 3178 3180 3181 3181 3180 3181 3182 3183 3184 3185 3186 3188 3191 3194 3196 3197 3198 3200 3200 3202
3148 3147 3145 3144 3143 3142 3142 3142 3141 3141 3140 3140 3138 3138 3139 3139 3137 3138 3136 3136 3139 3139 3139 3138 3138 3139 3139 3138 3138 3136 3138 3141 3141 3141 3140 3141 3143 3145 3147 3148 3149 3150 3151 3152 3153 3153 3153 3154 3155 3156 3157 3159 3160 3161 3162 3162 3164 3164 3162 3162 3162 3163 3166 3168 3169 3171 3173 3176 3178 3180 3181 3180 3180 3181 3182 3182 3183 3183 3185 3188 3190 3191 3194 3196 3198 3199 3200 3201
3148 3147 3146 3145 3144 3144 3143 3143 3143 3141 3139 3140 3140 3140 3141 3139 3138 3139 3137 3136 3139 3139 3138 3138 3138 3139 3138 3137 3138 3137 3139 3141 3142 3141 3140 3140 3144 3146 3147 3148 3149 3149 3150 3151 3152 3152 3152 3153 3154 3155 3156 3157 3159 3161 3162 3163 3163 3162 3161 3160 3160 3161 3164 3166 3168 3169 3172 3175 3177 3179 3180 3179 3179 3180 3181 3181 3182 3182 3185 3187 3189 3190 3192 3194 3197 3198 3200 3201
3149 3148 3147 3146 3145 3145 3145 3144 3143 3141 3142 3144 3145 3143 3142 3141 3140 3140 3138 3137 3138 3139 3138 3138 3139 3138 3138 3138 3138 3138 3139 3141 3142 3141 3141 3141 3143 3146 3147 3148 3148 3148 3150 3151 3151 3151 3151 3152 3153 3154 3155 3157 3159 3161 3162 3163 3163 3160 3159 3158 3159 3161 3162 3163 3165 3167 3170 3173 3176 3178 3179 3178 3178 3179 3180 3180 3181 3182 3184 3186 3188 3189 3190 3193 3195 3197 3199 3200
3150 3149 3148 3147 3147 3146 3145 3145 3144 3143 3145 3147 3146 3144 3143 3142 3142 3141 3140 3137 3137 3139 3139 3140 3140 3138 3139 3139 3139 3139 3139 3141 3142 3141 3141 3142 3142 3144 3145 3147 3148 3148 3149 3150 3150 3150 3150 3150 3153 3153 3154 3156 3158 3160 3161 3162 3161 3159 3159 3159 3160 3162 3162 3161 3163 3165 3167 3170 3173 3176 3177 3177 3177 3177 3178 3179 3180 3182 3183 3184 3186 3187 3189 3191 3194 3196 3198 3200
3151 3150 3149 3149 3148 3147 3147 3146 3146 3144 3145 3146 3146 3145 3144 3144 3142 3142 3142 3139 3137 3140 3140 3140 3139 3138 3139 3140 3139 3140 3140 3141 3142 3141 3142 3143 3143 3144 3145 3146 3148 3148 3148 3149 3149 3149 3149 3149 3151 3152 3153 3155 3157 3159 3160 3161 3160 3159 3160 3161 3160 3162 3163 3163 3163 3164 3165 3169 3171 3173 3174 3176 3175 3174 3175 3178 3179 3180 3181 3183 3184 3186 3188 3190 3192 3195 3197 3199
3152 3151 3150 3150 3149 3149 3148 3148 3148 3147 3146 3146 3146 3146 3145 3145 3143 3144 3144 3140 3138 3140 3141 3140 3139 3139 3140 3140 3140 3141 3141 3141 3142 3142 3143 3143 3143 3143 3144 3145 3147 3147 3148 3149 3148 3148 3149 3148 3150 3151 3153 3155 3157 3158 3158 3159 3160 3159 3160 3162 3162 3161 3161 3162 3163 3163 3164 3167 3168 3169 3171 3173 3172 3171 3173 3175 3175 3176 3178 3180 3183 3185 3187 3189 3191 3194 3196 3198
3152 3152 3151 3151 3150 3150 3150 3149 3149 3148 3148 3148 3147 3147 3146 3145 3145 3144 3141 3139 3139 3139 3140 3140 3140 3140 3141 3140 3141 3141 3142 3141 3142 3143 3143 3144 3144 3143 3143 3145 3146 3146 3148 3147 3146 3147 3148 3149 3151 3153 3154 3155 3157 3158 3157 3158 3159 3160 3161 3162 3163 3162 3162 3162 3162 3163 3164 3164 3165 3166 3169 3171 3170 3170 3170 3170 3170 3171 3174 3177 3180 3183 3185 3187 3189 3193 3195 3197
3153 3152 3152 3152 3152 3151 3151 3150 3149 3149 3149 3149 3148 3148 3146 3146 3146 3143 3139 3139 3140 3139 3140 3141 3141 3141 3141 3141 3141 3141 3141 3142 3142 3143 3143 3144 3145 3145 3145 3146 3146 3146 3147 3147 3145 3147 3148 3148 3150 3153 3154 3155 3156 3157 3157 3158 3159 3160 3161 3162 3163 3161 3162 3162 3161 3163 3164 3163 3164 3165 3167 3170 3170 3169 3168 3168 3169 3170 3172 3174 3177 3181 3183 3185 3188 3191 3194 3196
3153 3153 3153 3153 3152 3152 3152 3151 3151 3150 3150 3149 3149 3148 3148 3147 3145 3141 3139 3140 3140 3139 3141 3141 3141 3141 3141 3142 3141 3140 3142 3142 3142 3142 3143 3144 3144 3145 3145 3145 3145 3145 3145 3146 3145 3146 3147 3147 3149 3152 3153 3154 3155 3156 3157 3157 3159 3161 3161 3162 3162 3158 3160 3161 3160 3161 3163 3162 3164 3166 3166 3168 3168 3167 3167 3168 3168 3169 3170 3173 3176 3179 3182 3184 3187 3190 3193 3195
3154 3153 3153 3153 3153 3153 3153 3153 3152 3152 3151 3150 3149 3149 3149 3148 3143 3140 3139 3140 3140 3141 3141 3141 3141 3141 3141 3142 3141 3140 3142 3142 3142 3143 3143 3144 3144 3145 3145 3144 3145 3145 3144 3144 3145 3145 3146 3147 3149 3151 3152 3152 3153 3154 3154 3154 3157 3160 3162 3162 3160 3157 3159 3163 3162 3163 3163 3163 3165 3166 3167 3167 3165 3164 3166 3167 3168 3168 3169 3172 3175 3178 3181 3183 3186 3189 3191 3193
3154 3154 3154 3154 3154 3154 3154 3153 3153 3152 3152 3151 3149 3149 3149 3146 3143 3141 3141 3141 3142 3143 3142 3141 3142 3141 3141 3141 3140 3141 3142 3141 3142 3143 3143 3143 3143 3144 3145 3144 3145 3145 3144 3144 3143 3143 3144 3144 3145 3148 3149 3150 3151 3151 3150 3152 3154 3156 3159 3160 3159 3156 3157 3160 3163 3164 3164 3163 3166 3167 3167 3167 3165 3165 3165 3166 3167 3168 3169 3170 3173 3177 3179 3182 3186 3188 3189 3192
3154 3154 3154 3154 3154 3154 3154 3154 3153 3153 3152 3151 3150 3150 3149 3146 3145 3144 3143 3143 3143 3143 3142 3142 3142 3142 3141 3140 3141 3142 3142 3141 3142 3143 3143 3143 3143 3144 3144 3144 3145 3145 3144 3144 3143 3141 3141 3141 3141 3144 3146 3148 3150 3150 3150 3152 3153 3153 3156 3158 3157 3157 3156 3156 3159 3162 3162 3163 3165 3166 3166 3166 3166 3166 3166 3166 3167 3168 3169 3170 3172 3175 3177 3181 3184 3185 3187 3189
3154 3154 3154 3155 3155 3155 3155 3154 3154 3153 3152 3152 3151 3149 3148 3146 3147 3147 3146 3145 3144 3143 3143 3142 3141 3141 3139 3138 3140 3142 3141 3141 3142 3142 3143 3143 3143 3144 3144 3144 3146 3146 3144 3145 3145 3142 3140 3140 3140 3143 3146 3147 3149 3151 3151 3152 3152 3152 3153 3154 3155 3157 3157 3155 3156 3159 3160 3160 3160 3162 3164 3164 3164 3166 3166 3166 3167 3168 3169 3170 3171 3173 3176 3178 3180 3182 3185 3187
3155 3154 3154 3155 3156 3156 3155 3155 3155 3154 3153 3153 3152 3150 3148 3147 3148 3148 3148 3147 3145 3144 3144 3143 3141 3141 3139 3137 3139 3141 3141 3141 3141 3141 3142 3143 3144 3145 3145 3145 3146 3146 3146 3146 3146 3143 3141 3140 3141 3144 3146 3147 3149 3151 3152 3152 3152 3151 3151 3151 3154 3157 3156 3155 3154 3155 3156 3156 3156 3159 3163 3163 3163 3164 3165 3166 3167 3168 3169 3170 3171 3173 3174 3176 3178 3180 3183 3186
3155 3154 3153 3156 3158 3157 3156 3156 3156 3155 3154 3154 3153 3152 3150 3149 3149 3149 3149 3148 3146 3146 3145 3144 3142 3141 3141 3139 3139 3141 3140 3140 3141 3142 3143 3144 3145 3146 3146 3147 3147 3147 3148 3148 3147 3145 3143 3142 3141 3143 3145 3146 3148 3150 3150 3151 3151 3151 3151 3150 3152 3153 3153 3155 3155 3155 3155 3155 3156 3158 3161 3163 3163 3164 3165 3166 3167 3169 3170 3171 3171 3172 3173 3174 3176 3178 3182 3185
3155 3154 3154 3157 3158 3157 3156 3156 3156 3155 3155 3154 3153 3151 3151 3150 3150 3150 3150 3148 3147 3147 3146 3144 3143 3142 3142 3142 3142 3141 3141 3142 3142 3143 3144 3145 3146 3146 3146 3147 3148 3148 3148 3148 3148 3146 3145 3144 3142 3143 3145 3146 3147 3148 3148 3149 3150 3151 3152 3151 3151 3150 3151 3152 3154 3155 3155 3155 3157 3158 3160 3162 3163 3163 3164 3166 3167 3168 3169 3169 3170 3171 3172 3173 3174 3177 3180 3182
3154 3154 3156 3158 3158 3158 3157 3156 3155 3155 3154 3154 3154 3152 3152 3151 3151 3150 3150 3148 3148 3148 3147 3146 3145 3144 3143 3144 3144 3143 3143 3144 3144 3144 3145 3146 3147 3147 3147 3147 3147 3147 3148 3148 3148 3147 3146 3145 3143 3142 3144 3145 3145 3145 3146 3147 3148 3151 3151 3151 3151 3151 3151 3151 3150 3151 3152 3152 3155 3155 3156 3159 3161 3160 3162 3163 3165 3166 3167 3168 3170 3171 3171 3172 3172 3174 3177 3180
3155 3155 3158 3159 3158 3158 3157 3155 3155 3155 3154 3154 3154 3154 3153 3152 3151 3151 3150 3149 3148 3148 3148 3147 3146 3145 3144 3144 3145 3144 3144 3145 3145 3145 3147 3148 3148 3147 3147 3147 3147 3147 3148 3148 3149 3148 3147 3146 3143 3142 3143 3143 3142 3143 3145 3146 3147 3149 3150 3150 3151 3151 3152 3152 3149 3149 3149 3149 3151 3151 3153 3157 3158 3159 3161 3161 3162 3164 3166 3168 3169 3169 3170 3171 3171 3173 3175 3178
3155 3156 3159 3159 3157 3158 3157 3155 3156 3155 3154 3154 3154 3154 3154 3153 3152 3151 3151 3150 3149 3149 3149 3148 3148 3147 3146 3145 3146 3146 3145 3146 3147 3147 3148 3149 3149 3148 3148 3149 3149 3148 3148 3148 3149 3147 3146 3146 3145 3143 3142 3141 3141 3142 3144 3145 3146 3147 3148 3149 3151 3151 3151 3150 3149 3149 3148 3147 3147 3146 3150 3158 3159 3160 3162 3161 3162 3164 3165 3167 3168 3168 3169 3170 3170 3171 3173 3175
3155 3157 3160 3158 3156 3157 3156 3155 3156 3155 3154 3154 3154 3155 3154 3154 3153 3152 3151 3151 3150 3149 3149 3149 3149 3148 3147 3147 3147 3147 3147 3148 3148 3149 3149 3150 3150 3150 3150 3151 3150 3150 3149 3148 3147 3146 3146 3147 3147 3145 3143 3141 3141 3141 3143 3145 3145 3146 3146 3147 3149 3150 3150 3149 3149 3150 3149 3147 3146 3144 3149 3157 3159 3160 3161 3159 3161 3165 3165 3165 3167 3168 3168 3169 3169 3170 3171 3173
3154 3156 3159 3157 3156 3157 3156 3156 3155 3153 3153 3154 3154 3154 3154 3154 3154 3153 3153 3152 3152 3151 3150 3149 3149 3149 3149 3149 3148 3149 3149 3149 3150 3150 3150 3150 3150 3151 3152 3151 3150 3151 3150 3148 3148 3148 3149 3148 3148 3148 3146 3143 3140 3138 3140 3144 3145 3144 3145 3146 3147 3149 3150 3150 3150 3150 3149 3148 3147 3147 3152 3158 3159 3160 3160 3157 3160 3166 3166 3166 3167 3168 3168 3168 3167 3168 3169 3171
3155 3156 3158 3157 3156 3156 3156 3155 3155 3153 3153 3154 3154 3154 3154 3153 3153 3153 3153 3153 3152 3152 3151 3151 3150 3150 3150 3149 3149 3150 3151 3150 3150 3150 3150 3151 3151 3151 3152 3152 3151 3151 3150 3149 3149 3151 3151 3150 3150 3149 3147 3144 3142 3138 3139 3143 3145 3145 3145 3146 3146 3147 3149 3150 3150 3151 3151 3150 3150 3151 3153 3157 3159 3160 3161 3158 3158 3163 3167 3168 3167 3168 3167 3166 3167 3168 3168 3169
3156 3157 3158 3158 3157 3156 3155 3155 3154 3153 3153 3154 3154 3154 3154 3154 3153 3153 3153 3153 3153 3152 3152 3152 3151 3150 3150 3150 3149 3150 3151 3151 3150 3151 3151 3152 3152 3151 3152 3152 3152 3151 3150 3150 3150 3151 3152 3151 3151 3150 3148 3146 3146 3144 3144 3145 3146 3146 3147 3145 3144 3145 3148 3150 3150 3149 3149 3149 3151 3152 3152 3155 3159 3160 3160 3159 3158 3160 3165 3167 3165 3165 3166 3166 3165 3166 3167 3168
3156 3157 3158 3158 3157 3156 3156 3155 3155 3154 3153 3154 3154 3154 3154 3154 3154 3153 3152 3152 3153 3152 3152 3152 3151 3151 3151 3151 3151 3150 3150 3150 3151 3152 3152 3151 3152 3152 3152 3152 3152 3151 3151 3151 3150 3151 3152 3151 3150 3150 3149 3148 3149 3148 3148 3148 3147 3146 3146 3146 3145 3145 3147 3148 3147 3149 3149 3149 3151 3153 3152 3155 3159 3159 3160 3160 3159 3159 3163 3166 3165 3164 3165 3165 3165 3166 3167 3167
3156 3158 3159 3157 3156 3156 3155 3154 3155 3155 3154 3154 3154 3154 3154 3154 3153 3153 3153 3153 3153 3153 3153 3152 3152 3152 3152 3152 3152 3152 3151 3151 3151 3152 3153 3153 3153 3152 3152 3151 3151 3152 3151 3151 3151 3151 3151 3151 3150 3149 3149 3148 3149 3150 3149 3149 3148 3147 3146 3147 3148 3147 3147 3145 3146 3149 3151 3150 3151 3153 3152 3154 3158 3158 3159 3161 3161 3160 3161 3164 3165 3164 3164 3164 3165 3167 3168 3167
3155 3155 3155 3155 3155 3156 3154 3154 3155 3155 3155 3154 3154 3154 3154 3154 3154 3154 3153 3153 3154 3153 3153 3153 3153 3152 3153 3153 3153 3153 3153 3153 3153 3153 3153 3153 3153 3153 3152 3152 3152 3152 3151 3151 3151 3151 3151 3151 3150 3150 3149 3147 3147 3147 3147 3147 3147 3147 3147 3148 3148 3148 3147 3146 3148 3151 3152 3151 3153 3153 3151 3152 3156 3157 3159 3161 3161 3160 3160 3161 3161 3162 3162 3162 3163 3165 3167 3167
3153 3152 3152 3153 3155 3156 3155 3155 3156 3155 3154 3154 3154 3154 3154 3154 3154 3154 3153 3154 3154 3153 3153 3153 3153 3153 3153 3153 3153 3153 3153 3154 3154 3154 3153 3153 3154 3153 3153 3152 3152 3152 3152 3152 3152 3151 3150 3151 3150 3150 3149 3148 3146 3145 3145 3146 3146 3146 3148 3149 3150 3149 3149 3148 3149 3151 3151 3151 3154 3154 3152 3152 3154 3156 3158 3160 3160 3160 3160 3160 3159 3159 3159 3160 3161 3163 3166 3168
3151 3152 3152 3153 3154 3155 3156 3156 3156 3155 3154 3153 3154 3153 3154 3154 3154 3154 3153 3154 3154 3153 3153 3153 3153 3153 3153 3153 3153 3153 3154 3154 3154 3153 3153 3153 3153 3153 3153 3153 3153 3153 3153 3152 3152 3152 3151 3151 3151 3150 3149 3147 3146 3144 3144 3144 3145 3146 3149 3151 3151 3150 3150 3150 3150 3150 3151 3151 3153 3154 3154 3154 3155 3156 3157 3159 3159 3158 3158 3159 3159 3157 3156 3156 3158 3161 3165 3168
3150 3152 3153 3153 3153 3154 3155 3155 3155 3155 3153 3153 3153 3153 3154 3154 3154 3154 3153 3153 3153 3153 3153 3153 3153 3153 3153 3153 3153 3153 3153 3153 3153 3153 3153 3153 3153 3153 3153 3153 3153 3153 3153 3153 3153 3153 3152 3152 3151 3151 3149 3147 3147 3146 3146 3145 3146 3148 3150 3152 3152 3152 3152 3152 3151 3151 3152 3153 3154 3156 3156 3155 3156 3157 3157 3158 3159 3157 3156 3156 3157 3157 3156 3155 3156 3159 3162 3166